sat.trackr.live / text

‹ back to catalog

STARLINK-5992

NORAD 56328 · 2023-058M

PAYLOAD ACTIVE UNKNOWN

§ Identity

Operator
Country
US
Launch date
2023-04-27
Launch site
AFWTR
Launch vehicle
Mass (kg)
RCS (m²)

Purposes: comms

External: N2YO · Heavens-Above · Gunter

§ Orbital elements

Epoch: 2026-05-24T23:11:37.999392Z

Period
95.64 min
Inclination
97.4464°
Eccentricity
0.0002062
Mean motion
15.05653232 rev/d
Perigee alt
548.1 km
Apogee alt
550.9 km
Semi-major
6,927.6 km
B*
3.1583e-6
RAAN
146.0289°
Arg perigee
77.0404°
Mean anomaly
283.1054°
Rev number
16,967

§ Raw data

STARLINK-59921 56328U 23058M   26144.96641203 -.00000013  00000+0  31583-5 0  99992 56328  97.4464 146.0289 0002062  77.0404 283.1054 15.05653232169676

JSON: /api/v1/satellites/56328 · /tle

For live sub-satellite position, see the globe view (requires WebGL).

§ Visibility from observer

Set your observer location to see the next 7 days of passes ≥ 10°. The values pass through the URL so the page stays shareable.

No JS? Fill the form by hand. The geolocation button needs JavaScript.